EW8073 Weather Reports


Display with metric or nautical units.
time (UTC)temp
F
wind
direction
speed
MPH
gust
MPH
rain 1hr
in
rain 24hr
in
rain mn
in
humidity
%
barometer
mb
20260505013820 58 24 0.0 1.0 0.00 0.00 0.00 51 1008.7
20260505013314 58 0 0.0 0.0 0.00 0.00 0.00 52 1008.7
20260505012808 59 0 0.0 0.0 0.00 0.00 0.00 51 1008.8
20260505012301 59 0 0.0 0.0 0.00 0.00 0.00 51 1008.8
20260505011756 59 285 0.0 0.0 0.00 0.00 0.00 51 1008.7
20260505011250 59 0 0.0 0.0 0.00 0.00 0.00 52 1008.8
20260505010744 60 0 0.0 0.0 0.00 0.00 0.00 52 1008.5
20260505010238 60 0 0.0 0.0 0.00 0.00 0.00 51 1008.5
20260505005731 60 0 0.0 0.0 0.00 0.00 0.00 48 1008.5
20260505004720 60 0 0.0 0.0 0.00 0.00 0.00 47 1008.5
20260505004214 60 0 0.0 1.0 0.00 0.00 0.00 45 1008.4
20260505003709 61 0 0.0 1.0 0.00 0.00 0.00 45 1008.3
20260505003203 61 319 0.0 1.0 0.00 0.00 0.00 44 1008.2
20260505002657 62 11 0.0 1.0 0.00 0.00 0.00 42 1008.2
20260505002149 62 340 0.0 0.0 0.00 0.00 0.00 39 1008.1
20260505001644 62 340 0.0 0.0 0.00 0.00 0.00 39 1008.1
20260505001137 62 325 0.0 0.0 0.00 0.00 0.00 39 1008.0
20260505000631 62 321 0.0 0.0 0.00 0.00 0.00 39 1007.8
20260505000125 62 321 0.0 1.0 0.00 0.00 0.00 39 1007.8
20260504235620 63 318 0.0 1.0 0.00 0.00 0.00 39 1007.7
20260504234605 63 285 0.0 0.0 0.00 0.00 0.00 39 1007.6
20260504233047 63 355 0.0 4.0 0.00 0.00 0.00 38 1007.7
20260504232037 64 298 1.0 10.0 0.00 0.00 0.00 38 1007.7
20260504231530 65 294 1.0 8.0 0.00 0.00 0.00 37 1007.7
20260504231023 65 305 1.0 9.0 0.00 0.00 0.00 33 1007.5
20260504230518 65 68 1.0 9.0 0.00 0.00 0.00 32 1007.4
20260504230012 66 5 0.0 4.0 0.00 0.00 0.00 31 1007.4
20260504225507 66 33 0.0 1.0 0.00 0.00 0.00 30 1007.5
20260504225001 66 345 0.0 1.0 0.00 0.00 0.00 30 1007.3
20260504224455 66 332 0.0 2.0 0.00 0.00 0.00 30 1007.1
20260504223947 67 346 0.0 2.0 0.00 0.00 0.00 30 1007.1
20260504223442 67 296 0.0 1.0 0.00 0.00 0.00 30 1007.0
20260504222936 67 55 0.0 1.0 0.00 0.00 0.00 29 1007.0
20260504222430 68 344 0.0 2.0 0.00 0.00 0.00 29 1007.0
20260504221924 68 75 1.0 8.0 0.00 0.00 0.00 28 1006.7
20260504221418 69 60 1.0 8.0 0.00 0.00 0.00 28 1006.6
20260504220911 69 259 0.0 4.0 0.00 0.00 0.00 28 1006.4
20260504220405 70 60 1.0 10.0 0.00 0.00 0.00 27 1006.3
20260504215859 70 327 2.0 10.0 0.00 0.00 0.00 28 1006.1
20260504214849 68 14 3.0 11.0 0.00 0.00 0.00 29 1006.1
20260504214346 68 42 2.0 11.0 0.00 0.00 0.00 30 1006.2
20260504212846 67 328 1.0 17.0 0.00 0.00 0.00 28 1006.4
20260504212344 68 321 0.0 6.0 0.00 0.00 0.00 27 1006.6
20260504211843 68 130 0.0 5.0 0.00 0.00 0.00 25 1006.7
20260504211340 68 340 0.0 2.0 0.00 0.00 0.00 25 1006.6
20260504210838 69 73 0.0 2.0 0.00 0.00 0.00 24 1006.7
20260504210338 68 127 0.0 2.0 0.00 0.00 0.00 25 1006.8
20260504205840 68 126 0.0 2.0 0.00 0.00 0.00 24 1006.8
20260504205335 68 215 1.0 6.0 0.00 0.00 0.00 24 1006.9
20260504204834 68 215 1.0 10.0 0.00 0.00 0.00 25 1007.0
20260504204331 68 327 0.0 10.0 0.00 0.00 0.00 24 1007.3
20260504203331 69 294 1.0 13.0 0.00 0.00 0.00 24 1006.9
20260504202833 69 251 1.0 13.0 0.00 0.00 0.00 24 1006.7
20260504202331 69 258 2.0 14.0 0.00 0.00 0.00 23 1006.4
20260504201330 70 252 1.0 10.0 0.00 0.00 0.00 23 1006.6
20260504200830 70 189 0.0 4.0 0.00 0.00 0.00 21 1006.4
20260504195817 71 227 3.0 18.0 0.00 0.00 0.00 20 1006.3
20260504195310 73 254 1.0 18.0 0.00 0.00 0.00 20 1006.3
20260504194805 74 246 0.0 4.0 0.00 0.00 0.00 19 1006.4
20260504194258 75 227 0.0 1.0 0.00 0.00 0.00 17 1006.6
20260504193752 75 325 0.0 0.0 0.00 0.00 0.00 16 1006.4
20260504193246 75 325 0.0 0.0 0.00 0.00 0.00 17 1006.3
20260504192233 75 259 0.0 3.0 0.00 0.00 0.00 17 1006.3
20260504191728 75 285 0.0 3.0 0.00 0.00 0.00 16 1006.3
20260504191222 75 306 0.0 1.0 0.00 0.00 0.00 16 1006.3
20260504190716 76 263 0.0 1.0 0.00 0.00 0.00 17 1006.2
20260504190211 75 244 0.0 1.0 0.00 0.00 0.00 17 1006.3
20260504185712 75 271 0.0 1.0 0.00 0.00 0.00 17 1006.3
20260504184710 73 245 0.0 2.0 0.00 0.00 0.00 18 1006.3
20260504184209 73 344 0.0 6.0 0.00 0.00 0.00 18 1006.3
20260504183710 73 355 1.0 8.0 0.00 0.00 0.00 19 1006.4
20260504183207 73 19 2.0 8.0 0.00 0.00 0.00 19 1006.4
20260504182708 73 319 2.0 9.0 0.00 0.00 0.00 19 1006.6
20260504181209 74 9 1.0 8.0 0.00 0.00 0.00 20 1006.6
20260504180708 74 292 2.0 9.0 0.00 0.00 0.00 21 1006.8
20260504180208 74 277 2.0 9.0 0.00 0.00 0.00 20 1006.8
20260504175704 74 0 2.0 9.0 0.00 0.00 0.00 21 1006.8
20260504175204 74 221 1.0 9.0 0.00 0.00 0.00 21 1006.9
20260504174204 73 283 3.0 9.0 0.00 0.00 0.00 22 1007.1
20260504173703 73 355 2.0 9.0 0.00 0.00 0.00 22 1007.3
20260504173203 73 5 0.0 4.0 0.00 0.00 0.00 22 1007.3
20260504172704 73 324 0.0 3.0 0.00 0.00 0.00 22 1007.3
20260504171705 73 127 1.0 7.0 0.00 0.00 0.00 22 1007.4
20260504171204 73 336 2.0 7.0 0.00 0.00 0.00 23 1007.4
20260504170703 72 348 1.0 7.0 0.00 0.00 0.00 23 1007.5
20260504170204 72 355 1.0 7.0 0.00 0.00 0.00 24 1007.5
20260504160122 67 322 0.0 4.0 0.00 0.00 0.00 28 1008.1
20260504151022 61 254 0.0 1.0 0.00 0.00 0.00 31 1008.3
20260504150517 60 262 0.0 1.0 0.00 0.00 0.00 32 1008.3
20260504140911 54 223 0.0 0.0 0.00 0.00 0.00 40 1008.4
20260504140405 54 216 0.0 0.0 0.00 0.00 0.00 43 1008.4
20260504130800 47 343 0.0 0.0 0.00 0.00 0.00 53 1008.5
20260504120140 44 343 0.0 0.0 0.00 0.00 0.00 56 1008.0
20260504110540 43 343 0.0 0.0 0.00 0.00 0.00 55 1008.3
20260504100528 45 343 0.0 0.0 0.00 0.00 0.00 49 1008.7
20260504082005 50 343 0.0 0.0 0.00 0.00 0.00 44 1009.4
20260504081505 51 343 0.0 0.0 0.00 0.00 0.00 43 1009.4
20260504081004 51 343 0.0 0.0 0.00 0.00 0.00 43 1009.4
20260504080504 51 343 0.0 0.0 0.00 0.00 0.00 43 1009.4
20260504045838 62 261 0.0 0.0 0.00 0.00 0.00 29 1009.1
20260504045339 62 263 0.0 0.0 0.00 0.00 0.00 29 1009.1
20260504044337 62 261 0.0 0.0 0.00 0.00 0.00 29 1009.2
20260504043838 62 261 0.0 0.0 0.00 0.00 0.00 29 1009.4
20260504043336 62 262 0.0 0.0 0.00 0.00 0.00 29 1009.4
20260504042837 62 264 0.0 0.0 0.00 0.00 0.00 29 1009.5
20260504042336 62 264 0.0 0.0 0.00 0.00 0.00 28 1009.5
20260504041831 63 264 0.0 0.0 0.00 0.00 0.00 28 1009.5
20260504040831 63 264 0.0 0.0 0.00 0.00 0.00 28 1009.6
20260504040330 63 265 0.0 0.0 0.00 0.00 0.00 28 1009.6
20260504035830 63 265 0.0 0.0 0.00 0.00 0.00 27 1009.7
20260504035332 63 265 0.0 0.0 0.00 0.00 0.00 28 1009.7
20260504034831 63 265 0.0 0.0 0.00 0.00 0.00 28 1009.7
20260504034332 63 267 0.0 0.0 0.00 0.00 0.00 28 1009.7
20260504033832 63 267 0.0 0.0 0.00 0.00 0.00 28 1009.8
20260504033330 63 268 0.0 0.0 0.00 0.00 0.00 28 1009.8
20260504032831 63 270 0.0 0.0 0.00 0.00 0.00 28 1009.8
20260504032330 63 270 0.0 0.0 0.00 0.00 0.00 28 1009.8
20260504031831 64 270 0.0 0.0 0.00 0.00 0.00 28 1009.8
20260504031332 64 270 0.0 0.0 0.00 0.00 0.00 27 1009.8
20260504030830 65 270 0.0 0.0 0.00 0.00 0.00 27 1009.8
20260504030330 65 270 0.0 0.0 0.00 0.00 0.00 27 1009.8
20260504025831 65 270 0.0 0.0 0.00 0.00 0.00 26 1009.8
20260504025331 66 270 0.0 0.0 0.00 0.00 0.00 26 1009.8
20260504024330 66 270 0.0 0.0 0.00 0.00 0.00 24 1009.7
20260504023830 67 270 0.0 0.0 0.00 0.00 0.00 24 1009.6
20260504023331 67 270 0.0 0.0 0.00 0.00 0.00 23 1009.7
20260504022831 67 270 0.0 0.0 0.00 0.00 0.00 23 1009.6
20260504022330 67 270 0.0 0.0 0.00 0.00 0.00 23 1009.7
20260504021832 68 270 0.0 0.0 0.00 0.00 0.00 22 1009.7
20260504021328 68 336 0.0 0.0 0.00 0.00 0.00 21 1009.6
20260504020826 68 346 0.0 2.0 0.00 0.00 0.00 21 1009.6
20260504020324 68 314 1.0 9.0 0.00 0.00 0.00 21 1009.4
20260504015824 68 41 1.0 9.0 0.00 0.00 0.00 22 1009.5
20260504015325 68 323 0.0 5.0 0.00 0.00 0.00 21 1009.8
20260504014824 68 304 1.0 11.0 0.00 0.00 0.00 21 1009.6
20260504014322 68 55 1.0 11.0 0.00 0.00 0.00 22 1009.5